Location: Lalanga
(4.5882°N, 32.9072°E)
Time: 21:58:59
(UTC+00:00)

ATLAS 3B R/B - Pass Details

Date: 24 January 2020
Orbit: 1027 x 1168 km, 63.8° (Epoch: 09 February)

Event Time Altitude Azimuth Distance (km) Brightness Sun altitude
Rises 16:28:06 0° 179° (S) 3,899 5.9 -8.0°
Reaches altitude 10° 16:31:17 10° 167° (SSE) 2,917 5.1 -8.8°
Maximum altitude 16:36:51 26° 112° (ESE) 1,930 3.7 -10.1°
Enters shadow 16:41:22 14° 63° (ENE) 2,591 4.1 -11.2°
